Location: Santa Barbara
(34.4500°N, 119.7700°W)
Time: 22:35:44
(UTC-08:00)

Envisat - Pass Details

Date: 29 October 2019
Orbit: 764 x 766 km, 98.1° (Epoch: 11 November)

Event Time Altitude Azimuth Distance (km) Brightness Sun altitude
Rises 19:52:49 0° 192° (SSW) 3,216 6.4 -22.0°
Reaches altitude 10° 19:55:22 10° 203° (SSW) 2,294 5.7 -22.5°
Maximum altitude 19:59:45 30° 263° (W) 1,362 4.9 -23.4°
Drops below altitude 10° 20:04:10 10° 324° (NW) 2,305 5.9 -24.3°
Sets 20:06:46 0° 335° (NNW) 3,235 6.6 -24.9°
